Location: Aiyekoto
(8.4333°N, 4.3667°E)
Time: 22:29:42
(UTC+00:00)

ATLAS 5 CENTAUR R/B - Pass Details

Date: 08 October 2020
Orbit: 527 x 1131 km, 63.4° (Epoch: 28 October)

Event Time Altitude Azimuth Distance (km) Brightness Sun altitude
Rises 04:52:05 0° 356° (N) 3,649 5.4 -10.2°
Reaches altitude 10° 04:54:55 10° 7° (N) 2,786 4.9 -9.5°
Maximum altitude 05:00:39 30° 66° (ENE) 1,839 4.7 -8.1°
Drops below altitude 10° 05:06:46 10° 124° (ESE) 2,996 6.2 -6.6°
Sets 05:09:53 0° 134° (SE) 3,967 6.6 -5.8°
